Location: Unspecified
(0.0000°N, 0.0000°E)
Time: 17:13:42
(UTC+00:00)

AO-85 - Pass Details

Date: 05 December 2021
Orbit: 521 x 762 km, 64.8° (Epoch: 12 March)

Event Time Altitude Azimuth Distance (km) Brightness Sun altitude
Exits shadow 03:20:41 16° 154° (SSE) 1,581 ? -34.2°
Drops below altitude 10° 03:21:31 10° 155° (SSE) 1,909 ? -34.0°
Sets 03:23:41 0° 156° (SSE) 2,775 ? -33.6°
